Weather Service Report


535 
ASCA42 TJSJ 261010
RWRPR 
PUERTO RICO/U.S. VIRGIN ISLANDS HOURLY WEATHER ROUNDUP
NATIONAL WEATHER SERVICE SAN JUAN PR
600 AM AST TUE JUL 26 2016

PRZ001-004-261100-
PUERTO RICO
  
CITY           SKY/WX    TMP DP  RH WIND       PRES   REMARKS
SAN JUAN LMM   TSTM      79  79 100 CALM      29.98R FOG              
PONCE          PTCLDY    75  72  88 CALM      29.96                   
CEIBA          PTCLDY    81  79  94 NE6       29.99R                  
$$

PRZ006-007-261100-
U.S. VIRGIN ISLANDS
  
CITY           SKY/WX    TMP DP  RH WIND       PRES   REMARKS
CHRISTIANSTED  PTCLDY    81  79  94 NE5       29.97R                  
$$

HOURLY WEATHER ROUNDUP FOR THE NEWS MEDIA
  
CITY           SKY/WX    TMP DP  RH WIND       PRES   REMARKS
ORLANDO        PTCLDY    77  73  87 SE3       30.07S                  
NEW YORK       PTCLDY    75  68  78 W8        29.89R                  
NEWARK         PTCLDY    72  68  87 VRB6      29.89R                  
CHICAGO        PTCLDY    70  64  81 CALM      30.04R                  
HARTFORD       CLEAR     70  67  90 W3        29.81R                  
BOSTON         CLEAR     77  67  71 W13G18    29.79R                  
DALLAS         MOCLDY    80  71  74 CALM      29.95R                  
PHILADELPHIA   MOCLDY    75  71  87 W6        29.92R                  
LOS ANGELES    PTCLDY    68  64  87 NW5       29.91S                  
WASHINGTON DC  CLOUDY    77  72  84 NW5       29.95R                  

Return to Home page


Western Regional Climate Center, wrcc@dri.edu